Churchill Falls Airport

Jump to: basic info | weather | frequencies | runways | comments

Related pages: nearby airports | nearby navaids | notams | map

Basic information (top)

Codes: ZUM CZUM
Location: lon 53.561901, lat -64.106400, elev 1,442 ft / 440 m msl
Status: small_airport
Scheduled airline service: yes
Links: Wikipedia Mobile

Weather (top)

Current conditions (rec'd 2014/12/22 17:00Z):

CZUM 221700Z AUTO 07002KT 9SM CLR M16/M17 A3025 RMK SLP297

Airport forecast (rec'd 2014/12/22 14:42Z):

TAF CZUM 221338Z 2214/2302 VRB03KT P6SM SKC 
     FM230000 VRB03KT P6SM FEW002 
      TEMPO 2300/2302 1SM BR BKN002 
      RMK FCST BASED ON AUTO OBS. NXT FCST BY 222000Z

Frequencies (top)

Verify before use: may be inaccurate or out of date.

ATF: 123.5 MHz (ATF)
AWOS: 122.55 MHz (AWOS)
CNTR: 126.025 MHz (GANDER CNTR)
RCO: 123.25 MHz (HALIFAX RDO)

Runways (top)

13/31: 5,500 x 150 ft (1,676 x 46 m) — paved — lighted

Latest comments (top)

churchill falls airport: no phone number [read]

More... (top)

See also NOTAMs and nearby airports and navaids, or visit the Churchill Falls Airport page at the main OurAirports website..